Hourly Weather Roundup
Issued by NWS Central Illinois

Home | Current Version | Previous Version | Text Only | Print | Product List | Glossary On
Versions: 1 2 3 4 5 6 7 8 9 10 11 12 13 14 15 16 17 18 19 20 21 22 23 24 25 26 27 28 29 30 31 32 33 34 35 36 37 38 39 40 41 42 43 44 45 46 47 48 49 50
000
NZUS43 KILX 280110
HWRILX

AREA WEATHER ROUNDUP
NATIONAL WEATHER SERVICE, LINCOLN IL
700 PM CST MON FEB 27 2017


CITY           SKY/WX    TMP DP  RH WIND       PRES   REMARKS
BLOOMINGTON    CLOUDY    49  36  61 SE10      30.04S
CHAMPAIGN      PTCLDY    50  39  66 SE10      30.07R
DECATUR        CLEAR     53  41  63 SE15      30.05S
EFFINGHAM      CLOUDY    52  46  79 E9        30.09S
FLORA          CLEAR     52  46  79 SE8       30.09S
GALESBURG      CLOUDY    50  32  50 E7        29.97S
JACKSONVILLE   CLOUDY    54  37  53 SE10      29.97F
LACON          CLOUDY    50  35  55 SE7       30.00F
LAWRENCEVILLE  CLEAR     46  42  86 E9        30.11F
LITCHFIELD     CLOUDY    56  43  62 SE16      30.00F
$$


CITY           SKY/WX    TMP DP  RH WIND       PRES   REMARKS
LINCOLN        CLEAR     52  39  61 SE6       30.02S
MACOMB         CLOUDY    51  32  49 SE8       29.98F
MATTOON        PTCLDY    51  44  77 SE10      30.08S
MT CARMEL AP   PTCLDY    47  42  82 E9        30.11F
OLNEY-NOBLE AP PTCLDY    50  46  87 E6        30.10S
PARIS          CLEAR     46  42  85 SE10      30.11S
PEORIA         PTCLDY    53  34  48 SE7       30.00F
PONTIAC        CLOUDY    45  35  70 SE8       30.05S
RANTOUL        CLEAR     50  41  72 SE9       30.07S
SPRINGFIELD    PTCLDY    57  40  52 SE10      30.00F
TAYLORVILLE    MOCLDY    54  41  60 SE14      30.01F
$$

...REGIONAL REPORTS...


CITY           SKY/WX    TMP DP  RH WIND       PRES   REMARKS
CHICAGO O`HARE CLOUDY    47  34  60 E7        30.06S
KANKAKEE       CLOUDY    47  36  64 SE6       30.08S
MOLINE         CLOUDY    46  31  55 E10       29.96F
MOUNT STERLING PTCLDY    52  35  52 SE9       29.94S
MOUNT VERNON   CLOUDY    56  45  66 SE3       30.08R
PITTSFIELD     CLOUDY    54  38  54 E9        29.95F
QUINCY         CLOUDY    54  34  46 SE14      29.92F
ROCKFORD       CLOUDY    47  34  60 SE8       30.04S
$$


CITY           SKY/WX    TMP DP  RH WIND       PRES   REMARKS
BURLINGTON     CLOUDY    52  29  41 SE10      29.92F
CEDAR RAPIDS   CLOUDY    46  30  53 E6        29.92S
DES MOINES     CLOUDY    52  27  38 SE10      29.86R
KIRKSVILLE     CLOUDY    54  31  41 E9        29.87F
OTTUMWA        CLOUDY    52  25  35 SE13      29.87F
ST LOUIS       PTCLDY    60  44  55 SE18      29.98S
$$


CITY           SKY/WX    TMP DP  RH WIND       PRES   REMARKS
TERRE HAUTE    CLEAR     46  41  82 SE8       30.12S
EVANSVILLE     CLEAR     50  43  77 NE6       30.10F
INDIANAPOLIS   PTCLDY    45  40  82 SE10      30.14S
LAFAYETTE      CLOUDY    47  39  74 SE6       30.11S
MADISON        CLOUDY    39  29  67 E3        30.01S
MILWAUKEE      CLOUDY    42  33  70 S7        30.06S
$$





USA.gov is the U.S. government's official web portal to all federal, state and local government web resources and services.